{"data":{"norad_id":65031,"epoch":"2026-09-19T20:10:54.711264Z","epoch_age_seconds":181130,"freshness":"STALE","line1":"1 65031U 25161S   26262.84091101  .00010587  00000+0  32396-3 0  9998","line2":"2 65031  53.1589 111.0877 0001405  77.3624 282.7536 15.34408000 63975","mean_motion":15.34408,"eccentricity":0.0001405,"inclination_deg":53.1589,"raan_deg":111.0877,"arg_perigee_deg":77.3624,"mean_anomaly_deg":282.7536,"bstar":0.00032396,"rev_number":6397,"period_min":93.847268783792,"perigee_km":461.71832791149,"apogee_km":463.64059733749,"semimajor_km":6840.8164626245,"source":"CELESTRAK","updated_at":"2026-09-21T09:00:35.494923Z"}}